Stations météo

réclame
Mon MeteoGroup
Nimes-Garons, France (7646): Température de l'air & dewpoint: 20.08.2019 03:00:00 - 26.08.2019 03:00:00 (CEST)Nimes-Garons, France (7646): Vitesse du vent & gusts: 20.08.2019 03:00:00 - 26.08.2019 03:00:00 (CEST)Nimes-Garons, France (7646): Direction du vent: 20.08.2019 03:00:00 - 26.08.2019 03:00:00 (CEST)Nimes-Garons, France (7646): reduced air pressure: 20.08.2019 03:00:00 - 26.08.2019 03:00:00 (CEST)Nimes-Garons, France (7646): visibility: 20.08.2019 03:00:00 - 26.08.2019 03:00:00 (CEST)Nimes-Garons, France (7646): Quantités de précipitations: 20.08.2019 03:00:00 - 26.08.2019 03:00:00 (CEST)
Date & Time tt [°C] td [°C] ff [km/h] ff [knt] fx [km/h] fx [knt] dd ppp [hPa] vv [km] rr [mm]
26.08.2019 03:00:00 20,9 20,2 3 1 7 4 N 1017,1 0,2 0,0
26.08.2019 02:00:00 21,0 19,8 5 3 7 4 SSE 1017,3 5 0,0
26.08.2019 01:00:00 20,8 19,3 6 4 13 7 SSE 1017,1 8 0,0
26.08.2019 00:00:00 20,9 18,8 9 5 12 7 S 1017,1 10 0,0
25.08.2019 23:00:00 23,0 18,3 7 4 9 5 SSE 1017,1 18 0,0
25.08.2019 22:00:00 24,1 16,6 5 3 10 5 SW 1016,9 25 0,0
25.08.2019 21:00:00 25,2 16,1 5 3 19 10 WSW 1016,0 30 0,0
25.08.2019 20:00:00 27,7 17,5 13 7 27 14 SW 1015,5 32 0,0
25.08.2019 19:00:00 29,4 17,2 13 7 26 14 SSW 1015,3 38 0,0
25.08.2019 18:00:00 30,9 18,3 16 9 34 18 SSW 1015,2 37 0,0
25.08.2019 17:00:00 31,6 17,9 16 9 31 17 SSW 1015,5 20 0,0
25.08.2019 16:00:00 32,8 18,9 13 7 35 19 S 1015,4 42 0,0
25.08.2019 15:00:00 33,0 17,2 14 7 29 16 S 1015,9 41 0,0
25.08.2019 14:00:00 32,7 16,5 7 4 21 11 SW 1016,4 43 0,0
25.08.2019 13:00:00 30,9 16,5 8 4 19 10 WSW 1016,9 45 0,0
25.08.2019 12:00:00 28,8 16,4 6 3 18 10 SSE 1017,5 20 0,0
25.08.2019 11:00:00 27,4 17,3 6 3 15 8 ESE 1018,2 26 0,0
25.08.2019 10:00:00 25,8 17,7 6 3 12 7 E 1018,1 23 0,0
25.08.2019 09:00:00 22,6 17,3 7 4 11 6 NE 1018,0 17 0,0
25.08.2019 08:00:00 19,6 18,9 4 2 7 4 NE 1017,7 6 0,0
25.08.2019 07:00:00 17,9 17,4 4 2 7 4 N 1017,5 4,7 0,0
25.08.2019 06:00:00 17,9 17,3 5 3 8 4 NE 1017,5 6 0,0
25.08.2019 05:00:00 17,3 16,5 4 2 6 4 NNE 1017,7 2,6 0,0
25.08.2019 04:00:00 19,5 18,3 6 3 13 7 SE 1017,7 4,0 0,0
25.08.2019 03:00:00 19,6 18,4 8 5 16 9 SSE 1017,8 4,3 0,0
25.08.2019 02:00:00 20,2 18,9 11 6 15 8 SE 1017,7 4,6 0,0
25.08.2019 01:00:00 21,0 18,8 8 4 14 8 SSE 1017,8 9 0,0
25.08.2019 00:00:00 20,7 17,7 7 4 17 9 S 1017,8 14 0,0
24.08.2019 23:00:00 22,6 17,3 8 5 17 9 SW 1017,7 22 0,0
24.08.2019 22:00:00 23,1 16,6 10 6 23 12 SW 1017,4 23 0,0
24.08.2019 21:00:00 24,2 16,5 10 5 23 13 SW 1017,1 24 0,0
24.08.2019 20:00:00 26,8 15,2 16 8 32 17 SW 1016,9 37 0,0
24.08.2019 19:00:00 29,2 15,3 18 10 33 18 SW 1016,7 49 0,0
24.08.2019 18:00:00 30,3 15,2 16 9 35 19 SSW 1017,1 40 0,0
24.08.2019 17:00:00 31,0 15,8 17 9 34 18 SSW 1017,3 48 0,0
24.08.2019 16:00:00 31,1 15,1 18 10 31 17 SSW 1017,8 50 0,0
24.08.2019 15:00:00 31,5 15,9 16 9 31 17 S 1017,9 50 0,0
24.08.2019 14:00:00 30,6 15,8 15 8 32 17 S 1018,2 48 0,0
24.08.2019 13:00:00 30,3 16,3 13 7 27 14 SSW 1018,6 48 0,0
24.08.2019 12:00:00 29,3 17,5 6 3 21 12 S 1019,0 52 0,0
24.08.2019 11:00:00 28,0 16,9 6 3 15 8 SSW 1019,4 20 0,0
24.08.2019 10:00:00 26,0 17,1 5 3 14 7 E 1019,4 20 0,0
24.08.2019 09:00:00 23,1 16,6 9 5 14 7 ENE 1019,5 21 0,0
24.08.2019 08:00:00 20,2 16,0 5 3 13 7 NE 1019,5 19 0,0
24.08.2019 07:00:00 18,7 15,8 - - 10 5 - 1019,4 18 0,0
24.08.2019 06:00:00 18,0 16,2 5 3 8 5 NE 1019,6 16 0,0
24.08.2019 05:00:00 18,4 16,6 4 2 8 4 NE 1019,6 14 0,0
24.08.2019 04:00:00 18,7 16,7 5 3 6 3 ENE 1019,8 19 0,0
24.08.2019 03:00:00 18,1 16,4 4 2 6 3 N 1019,8 18 0,0
24.08.2019 02:00:00 18,7 17,0 4 2 5 3 NNE 1019,9 19 0,0
24.08.2019 01:00:00 19,3 16,9 4 2 5 3 N 1019,9 18 0,0
24.08.2019 00:00:00 21,1 17,5 3 2 9 5 ESE 1019,7 18 0,0
23.08.2019 23:00:00 21,5 17,1 6 4 11 6 ESE 1019,6 33 0,0
23.08.2019 22:00:00 21,5 16,7 7 4 10 5 S 1019,2 36 0,0
23.08.2019 21:00:00 23,3 16,1 7 4 26 14 SSW 1018,5 40 0,0
23.08.2019 20:00:00 25,9 15,0 17 9 29 16 SSE 1018,1 50 0,0
23.08.2019 19:00:00 28,7 15,2 20 11 33 18 S 1017,5 42 0,0
23.08.2019 18:00:00 30,9 13,7 22 12 34 19 SSE 1017,5 59 0,0
23.08.2019 17:00:00 32,3 15,8 18 10 34 18 SSE 1017,4 59 0,0
23.08.2019 16:00:00 33,4 14,5 13 7 28 15 SSE 1017,6 60 0,0
23.08.2019 15:00:00 31,8 14,4 9 5 29 16 E 1018,2 20 0,0
23.08.2019 14:00:00 31,1 14,7 12 7 39 21 E 1018,5 60 0,0
23.08.2019 13:00:00 30,5 14,6 16 9 31 17 ENE 1019,1 58 0,0
23.08.2019 12:00:00 28,9 14,7 18 10 35 19 NNE 1019,2 60 0,0
23.08.2019 11:00:00 27,3 14,3 17 9 39 21 NNE 1019,3 53 0,0
23.08.2019 10:00:00 25,8 14,9 23 12 39 21 N 1019,7 56 0,0
23.08.2019 09:00:00 23,4 14,7 17 9 34 18 N 1019,9 60 0,0
23.08.2019 08:00:00 20,6 13,8 9 5 17 9 NNW 1019,9 49 0,0
23.08.2019 07:00:00 19,1 12,8 9 5 16 9 NW 1019,7 60 0,0
23.08.2019 06:00:00 19,6 13,1 7 4 19 10 NNW 1019,8 60 0,0
23.08.2019 05:00:00 20,3 13,7 13 7 20 11 N 1019,8 60 0,0
23.08.2019 04:00:00 20,4 13,6 10 5 27 15 NNW 1020,0 60 0,0
23.08.2019 03:00:00 22,4 14,0 18 10 36 19 NNE 1019,9 60 0,0
23.08.2019 02:00:00 22,2 13,8 10 5 26 14 N 1020,2 60 0,0
23.08.2019 01:00:00 22,5 13,3 13 7 36 19 N 1020,3 60 0,0
23.08.2019 00:00:00 23,2 13,1 13 7 27 14 N 1020,5 60 0,0
22.08.2019 23:00:00 23,6 12,9 16 9 31 17 N 1020,8 59 0,0
22.08.2019 22:00:00 22,9 13,9 5 3 18 10 NE 1020,6 54 0,0
22.08.2019 21:00:00 25,4 14,5 15 8 38 20 ESE 1020,2 57 0,0
22.08.2019 20:00:00 28,8 13,5 18 10 34 18 ENE 1019,3 58 0,0
22.08.2019 19:00:00 31,6 14,3 16 9 26 14 E 1018,4 52 0,0
22.08.2019 18:00:00 30,8 14,4 10 5 34 19 E 1017,9 57 0,0
22.08.2019 17:00:00 31,7 14,4 5 3 26 14 SE 1018,3 49 0,0
22.08.2019 16:00:00 32,7 13,8 9 5 27 15 E 1018,2 39 0,0
22.08.2019 15:00:00 32,0 13,7 15 8 35 19 NNE 1018,6 58 0,0
22.08.2019 14:00:00 31,8 13,5 17 9 34 19 NE 1018,8 60 0,0
22.08.2019 13:00:00 30,6 13,4 18 10 34 18 NNE 1019,2 53 0,0
22.08.2019 12:00:00 28,2 13,3 19 10 38 20 NNE 1019,7 58 0,0
22.08.2019 11:00:00 26,1 12,9 21 12 39 21 NNE 1019,8 60 0,0
22.08.2019 10:00:00 24,2 13,4 21 11 36 20 N 1019,6 60 0,0
22.08.2019 09:00:00 21,6 13,0 19 10 36 19 N 1019,5 48 0,0
22.08.2019 08:00:00 20,5 12,7 18 10 32 18 N 1019,5 60 0,0
22.08.2019 07:00:00 19,0 12,7 7 4 14 8 NNE 1019,2 60 0,0
22.08.2019 06:00:00 19,0 12,3 9 5 19 11 N 1018,7 60 0,0
22.08.2019 05:00:00 20,0 12,5 11 6 26 14 N 1018,5 60 0,0
22.08.2019 04:00:00 20,1 12,8 13 7 32 17 N 1018,5 60 0,0
22.08.2019 03:00:00 20,8 13,5 18 10 39 21 N 1018,8 60 0,0
22.08.2019 02:00:00 20,9 13,6 22 12 34 19 N 1019,0 60 0,0
22.08.2019 01:00:00 21,2 13,6 21 12 38 21 N 1019,3 60 0,0
22.08.2019 00:00:00 21,6 13,5 22 12 43 23 N 1019,3 60 0,0
21.08.2019 23:00:00 21,9 13,3 24 13 48 26 N 1019,2 60 0,0
21.08.2019 22:00:00 22,1 12,9 29 16 47 26 NNE 1019,0 60 0,0
21.08.2019 21:00:00 22,7 11,4 22 12 39 21 NNE 1018,4 60 0,0
21.08.2019 20:00:00 24,2 10,8 21 12 45 24 NNE 1018,0 60 0,0
21.08.2019 19:00:00 26,3 10,0 24 13 40 22 NNE 1017,4 60 0,0
21.08.2019 18:00:00 26,4 9,3 22 12 44 24 NNE 1017,7 40 0,0
21.08.2019 17:00:00 28,3 9,6 26 14 44 24 NNE 1017,8 38 0,0
21.08.2019 16:00:00 29,0 10,2 24 13 48 26 NNE 1017,8 45 0,0
21.08.2019 15:00:00 27,9 9,7 24 13 45 24 NNE 1018,2 46 0,0
21.08.2019 14:00:00 27,1 9,9 27 15 48 26 N 1018,5 43 0,0
21.08.2019 13:00:00 25,8 10,4 27 15 48 26 N 1019,1 41 0,0
21.08.2019 12:00:00 25,3 10,3 26 14 55 30 NNE 1019,2 42 0,0
21.08.2019 11:00:00 23,4 9,4 35 19 55 30 N 1019,6 35 0,0
21.08.2019 10:00:00 21,7 9,6 31 17 58 31 NNE 1019,8 36 0,0
21.08.2019 09:00:00 19,8 9,7 31 17 54 29 N 1019,8 36 0,0
21.08.2019 08:00:00 18,6 9,4 28 15 55 30 N 1019,7 39 0,0
21.08.2019 07:00:00 17,9 9,3 28 15 52 28 N 1019,3 60 0,0
21.08.2019 06:00:00 17,9 9,5 28 15 60 32 N 1019,2 60 0,0
21.08.2019 05:00:00 18,2 9,5 29 15 54 29 N 1019,3 60 0,0
21.08.2019 04:00:00 18,1 9,4 27 14 55 30 N 1019,7 60 0,0
21.08.2019 03:00:00 18,2 9,8 25 14 50 27 N 1019,7 60 0,0
21.08.2019 02:00:00 18,4 9,2 28 15 49 26 N 1020,0 60 0,0
21.08.2019 01:00:00 18,4 8,9 28 15 49 27 N 1020,4 59 0,0
21.08.2019 00:00:00 19,1 9,3 28 15 57 31 N 1020,8 60 0,0
20.08.2019 23:00:00 19,4 9,6 30 16 54 29 N 1021,0 60 0,0
20.08.2019 22:00:00 19,8 9,9 33 18 68 37 N 1021,1 60 0,0
20.08.2019 21:00:00 20,2 10,6 32 18 60 32 NNW 1020,9 60 0,0
20.08.2019 20:00:00 20,9 10,7 26 14 59 32 N 1020,5 40 0,0
20.08.2019 19:00:00 21,9 11,9 34 18 54 29 NNE 1020,2 27 0,0
20.08.2019 18:00:00 20,8 13,2 29 16 47 25 N 1020,7 45 0,0
20.08.2019 17:00:00 21,0 13,7 23 12 39 21 N 1020,5 60 0,0
20.08.2019 16:00:00 22,1 13,7 26 14 41 22 N 1020,4 49 0,0
20.08.2019 15:00:00 22,5 13,6 22 12 42 23 N 1020,7 57 0,0
20.08.2019 14:00:00 22,5 13,0 21 11 42 23 N 1020,3 56 0,0
20.08.2019 13:00:00 23,6 13,2 23 13 37 20 N 1019,9 60 0,0
20.08.2019 12:00:00 22,9 13,1 21 11 39 21 N 1019,7 60 0,0
20.08.2019 11:00:00 22,0 13,1 20 11 37 20 N 1019,4 60 0,0
20.08.2019 10:00:00 21,5 12,9 14 8 26 14 N 1019,2 56 0,0
20.08.2019 09:00:00 20,1 12,6 16 9 32 17 N 1018,7 58 0,0
20.08.2019 08:00:00 19,3 12,3 18 10 40 22 N 1018,2 60 0,0
20.08.2019 07:00:00 19,2 12,9 22 12 40 22 N 1017,4 60 0,0
20.08.2019 06:00:00 19,7 12,5 22 12 40 21 NNE 1017,1 60 0,0
20.08.2019 05:00:00 20,8 12,5 16 9 31 17 N 1017,8 60 0,0
20.08.2019 04:00:00 20,9 12,1 16 8 31 17 N 1017,6 60 0,0
20.08.2019 03:00:00 20,8 12,7 16 8 30 16 N 1018,1 60 0,0

tt = Température de l'air
td = dewpoint
ff = Vitesse du vent
fx = gusts
dd = Direction du vent
ppp = reduced air pressure
vv = visibility
rr = Quantités de précipitations

stations d'obs. à proximité